[[{"header":{"parameterUnit":"m.s-1","parameterCategory":1,"la1":30.2991,"la2":30.254,"lo1":-89.0895,"lo2":-89.0444,"dy":0.0017,"dx":0.0017,"nx":28,"ny":28,"refTime":"2025-09-04T03:00:00:Z","depth":0,"parameterNumber":2,"parameterNumberName":"U-component_of_WINDS"},"data":[0,0,0,0,0,0,0,0,0,0,0,0,0,0,0,0,0,0,0,0,0,0,0,0,0,0,0,0,0,0,0,0,0,0,0,0,0,0,0,0,0,0,0,0,0,0,0,0,0,0,0,0,0,0,0,0,0,0,1.8452,1.8452,0,1.8409,1.8409,1.8408,1.833,1.8328,1.8327,1.8325,1.8281,1.8282,1.8282,0,0,0,0,0,0,0,0,0,0,0,0,0,1.8464,1.8464,1.8452,1.8452,1.8451,1.8409,1.8409,1.8408,1.833,1.8328,1.8327,1.8325,1.8281,1.8282,1.8282,0,0,0,0,0,0,0,0,0,0,0,0,0,1.8444,1.8464,1.8452,1.8407,1.8403,1.8409,1.8409,1.8408,1.8331,1.8328,1.8326,1.8324,1.8281,1.8282,1.8282,1.8329,0,0,1.8283,1.8283,0,0,0,0,0,0,0,0,1.8445,1.8443,1.8414,1.841,1.8405,1.8373,1.8396,1.8381,1.8331,1.8358,1.8325,1.8323,1.8314,1.8311,1.8308,1.8327,1.8325,1.8283,1.8283,1.8283,1.8283,0,0,0,0,0,0,0,1.8446,1.8445,1.8435,1.8414,1.8408,1.8388,1.8383,1.8393,1.8349,1.8355,1.835,1.8346,1.8311,1.8308,1.8306,1.8324,1.8283,1.8283,1.8284,1.8284,1.8375,1.8377,0,0,0,0,0,0,1.8455,1.8446,1.8436,1.8434,1.842,1.839,1.8384,1.8385,1.8349,1.8341,1.8348,1.8342,1.8308,1.8306,1.8305,1.8353,1.8283,1.8284,1.8284,1.8372,1.8375,1.8378,0,0,0,0,0,0,1.8455,1.8455,1.8438,1.8438,1.8435,1.8392,1.8394,1.8386,1.8383,1.8343,1.8334,1.8353,1.8307,1.8304,1.8322,1.8351,1.8284,1.8284,1.837,1.8373,1.8376,1.8454,0,0,0,0,0,0,1.8456,1.8455,1.8474,1.8439,1.8435,1.8458,1.8396,1.8386,1.8383,1.8376,1.8345,1.8338,1.8305,1.8322,1.8323,1.835,1.8284,1.8367,1.8371,1.8375,1.8448,1.8459,1.8469,0,0,0,0,0,1.8457,1.8498,1.8475,1.8474,1.8457,1.846,1.8457,1.8417,1.8386,1.8403,1.8377,1.8339,1.8348,1.8325,1.8325,1.8352,1.8365,1.837,1.8375,1.8444,1.8457,1.8468,0,0,0,0,0,0,1.8537,1.8493,1.8467,1.8499,1.8483,1.8446,1.8467,1.8434,1.8427,1.842,1.8371,1.8365,1.8389,1.8373,1.8348,1.8394,1.835,1.8356,1.8403,1.8415,1.8425,1.8427,1.8285,0,0,0,0,0,1.8559,1.8565,1.8526,1.8558,1.8551,1.8511,1.851,1.8481,1.8463,1.8456,1.8431,1.8415,1.8414,1.8414,1.8411,1.8446,1.8436,1.8465,1.8475,1.8484,1.8488,1.8501,1.8512,1.8394,1.8394,1.8394,0,0,1.8603,1.858,1.8587,1.8573,1.8558,1.8563,1.8506,1.8516,1.8518,1.8458,1.8472,1.8454,1.8432,1.8458,1.8468,1.8445,1.8518,1.849,1.8497,1.8497,1.8507,1.8518,1.8528,1.8397,1.8397,1.8396,0,0,1.8686,1.8671,1.8693,1.8678,1.8656,1.8628,1.8633,1.8601,1.8585,1.86,1.8552,1.8556,1.8556,1.8541,1.8533,1.8608,1.8571,1.8608,1.866,1.8673,1.8682,1.869,1.8713,1.8722,1.8613,1.8613,1.8614,0,1.8744,1.8751,1.8709,1.872,1.8714,1.8659,1.8679,1.8667,1.8645,1.8641,1.8617,1.8612,1.8595,1.8614,1.8631,1.8629,1.8631,1.861,1.8685,1.8692,1.8699,1.872,1.8729,1.8618,1.8617,1.8617,1.8616,0,1.8821,1.8827,1.8848,1.8826,1.8822,1.8839,1.8797,1.8799,1.8769,1.8744,1.8757,1.8733,1.8722,1.8725,1.8698,1.8739,1.8725,1.8694,1.8649,1.8715,1.8734,1.8742,1.8624,1.8622,1.8621,1.862,0,0,1.8954,1.8906,1.8914,1.8902,1.8871,1.8874,1.8887,1.8876,1.8876,1.8862,1.8869,1.8869,1.8838,1.883,1.88,1.8812,1.8867,1.8778,1.8777,1.8792,1.8907,1.8929,1.8939,1.8844,1.8845,1.8846,1.8907,0,1.9027,1.9046,1.9006,1.9034,1.9036,1.8983,1.8993,1.8975,1.8951,1.8949,1.8922,1.8921,1.8883,1.8877,1.8887,1.8858,1.8889,1.8854,1.8847,1.8848,1.8851,1.8949,1.8973,1.9031,1.8915,1.8916,1.8917,0,1.9115,1.9104,1.9131,1.9095,1.9095,1.9105,1.9089,1.9089,1.9066,1.9047,1.9037,1.9001,1.9009,1.8968,1.8976,1.8953,1.8948,1.8933,1.8935,1.893,1.8884,1.8943,1.905,1.9057,1.8929,1.8928,1.8927,0,1.9203,1.9195,1.9209,1.9201,1.9161,1.9168,1.9152,1.9127,1.9122,1.9108,1.9103,1.9092,1.9084,1.9075,1.9036,1.9011,1.9048,1.9004,1.903,1.9031,1.9038,1.9038,1.9141,1.9041,1.9041,1.9041,1.9041,0,1.9287,1.9305,1.9248,1.9256,1.9273,1.9228,1.9246,1.9224,1.9202,1.9204,1.9158,1.9161,1.9111,1.9107,1.9077,1.9086,1.9084,1.9067,1.9058,1.9069,1.9071,1.9063,1.9057,1.9043,1.9043,1.9042,1.9042,0,1.9388,1.9351,1.9362,1.9322,1.9313,1.9327,1.9292,1.9297,1.927,1.9272,1.927,1.9228,1.9221,1.9181,1.9166,1.9146,1.9164,1.9149,1.9171,1.9165,1.9191,1.9188,1.9291,1.93,1.9198,1.9199,1.92,0,1.9442,1.9454,1.9415,1.9413,1.9398,1.9396,1.9389,1.9344,1.9339,1.9312,1.9319,1.9309,1.9297,1.9289,1.9255,1.9243,1.9224,1.9261,1.9222,1.9231,1.922,1.9218,1.9217,1.9269,1.927,1.9271,1.9272,0,1.9541,1.9521,1.9513,1.9498,1.9491,1.9478,1.9461,1.9462,1.9412,1.9408,1.94,1.9391,1.9374,1.9363,1.9344,1.9325,1.9289,1.9285,1.9289,1.9299,1.931,1.93,1.919,1.9282,1.9281,1.9281,1.928,1.928,1.9617,1.9623,1.9596,1.9588,1.957,1.9555,1.9557,1.9529,1.9521,1.9503,1.9478,1.9472,1.9446,1.9416,1.9401,1.9394,1.9374,1.9382,1.9383,1.9385,1.9389,1.9314,1.9391,1.9391,1.9391,1.939,1.939,0,1.971,1.9689,1.9682,1.9659,1.9652,1.962,1.9599,1.9594,1.959,1.9569,1.9558,1.9546,1.9535,1.95,1.9484,1.9486,1.9468,1.9483,1.948,1.9476,1.941,1.9406,1.9496,1.9496,1.9496,1.9496,1.9496,1.9496,1.9757,1.9765,1.9741,1.9739,1.9718,1.9711,1.9702,1.9687,1.9669,1.9658,1.9647,1.9625,1.9597,1.9578,1.9565,1.9555,1.955,1.9569,1.9553,1.9491,1.9481,1.9471,1.9467,1.9569,1.9569,1.9619,1.9619,1.962]},{"header":{"parameterUnit":"m.s-1","parameterCategory":1,"la1":30.2991,"la2":30.254,"lo1":-89.0895,"lo2":-89.0444,"dy":0.0017,"dx":0.0017,"nx":28,"ny":28,"refTime":"2025-09-04T03:00:00:Z","depth":0,"parameterNumber":3,"parameterNumberName":"V-component_of_WINDS"},"data":[0,0,0,0,0,0,0,0,0,0,0,0,0,0,0,0,0,0,0,0,0,0,0,0,0,0,0,0,0,0,0,0,0,0,0,0,0,0,0,0,0,0,0,0,0,0,0,0,0,0,0,0,0,0,0,0,0,0,1.8003,1.8005,0,1.8116,1.8117,1.8119,1.8138,1.8137,1.8136,1.8135,1.8249,1.8252,1.8256,0,0,0,0,0,0,0,0,0,0,0,0,0,1.7801,1.7805,1.8003,1.8005,1.8006,1.8116,1.8117,1.8119,1.8138,1.8137,1.8136,1.8134,1.8247,1.8252,1.8257,0,0,0,0,0,0,0,0,0,0,0,0,0,1.7899,1.7806,1.8003,1.8029,1.8032,1.8116,1.8117,1.8119,1.8138,1.8137,1.8135,1.8134,1.8246,1.8251,1.8257,1.8322,0,0,1.8275,1.8278,0,0,0,0,0,0,0,0,1.7893,1.7906,1.8024,1.8027,1.8031,1.8111,1.8088,1.8187,1.8138,1.8098,1.8135,1.8133,1.8204,1.8213,1.8238,1.8328,1.8333,1.8276,1.8279,1.8282,1.8284,0,0,0,0,0,0,0,1.7887,1.7902,1.8048,1.8025,1.803,1.8034,1.8046,1.8107,1.8158,1.8101,1.8103,1.8116,1.8206,1.8232,1.824,1.8334,1.8276,1.8281,1.8285,1.8287,1.8481,1.8483,0,0,0,0,0,0,1.7875,1.7896,1.8044,1.8051,1.7957,1.8038,1.8052,1.8087,1.8157,1.8166,1.8117,1.8117,1.8222,1.8233,1.8244,1.8324,1.8282,1.8287,1.8291,1.848,1.8482,1.8483,0,0,0,0,0,0,1.7871,1.7889,1.804,1.7974,1.7994,1.8044,1.8082,1.809,1.8116,1.8169,1.8178,1.8135,1.8222,1.8236,1.8303,1.8328,1.829,1.8295,1.8478,1.848,1.8482,1.8484,0,0,0,0,0,0,1.7865,1.7887,1.7913,1.7974,1.7997,1.8097,1.8084,1.8093,1.8126,1.8127,1.8188,1.8196,1.8222,1.8294,1.8308,1.8336,1.83,1.8476,1.8479,1.8482,1.8482,1.8486,1.849,0,0,0,0,0,1.7858,1.7909,1.7914,1.7932,1.8031,1.8098,1.8111,1.814,1.8128,1.8154,1.8188,1.8195,1.8323,1.83,1.8317,1.8346,1.8474,1.8478,1.8481,1.848,1.8485,1.849,0,0,0,0,0,0,1.7849,1.7918,1.7924,1.7997,1.8042,1.8101,1.8135,1.8145,1.8193,1.8191,1.8224,1.8238,1.8302,1.8331,1.8304,1.8412,1.8398,1.8405,1.8391,1.8396,1.84,1.8392,1.8305,0,0,0,0,0,1.7856,1.7906,1.7963,1.8021,1.8043,1.8085,1.8116,1.8134,1.8181,1.82,1.8239,1.8284,1.8334,1.8367,1.8416,1.8486,1.8499,1.8514,1.8518,1.8521,1.8527,1.8564,1.8571,1.8495,1.8495,1.8495,0,0,1.787,1.7913,1.7943,1.802,1.8057,1.8107,1.8101,1.8155,1.8192,1.8208,1.8273,1.8303,1.8355,1.8423,1.8455,1.8449,1.8551,1.8526,1.8528,1.8532,1.8569,1.8576,1.8582,1.8498,1.8498,1.8497,0,0,1.7921,1.7959,1.8012,1.8048,1.8104,1.8131,1.8144,1.8202,1.8222,1.8288,1.8301,1.8345,1.8431,1.8468,1.8497,1.856,1.8567,1.8575,1.8596,1.8632,1.8638,1.8643,1.8664,1.8671,1.858,1.858,1.858,0,1.7931,1.8008,1.8037,1.809,1.8123,1.814,1.8192,1.8226,1.8295,1.8317,1.8309,1.8417,1.8454,1.8529,1.8544,1.8568,1.8582,1.8568,1.8634,1.864,1.8646,1.8666,1.8674,1.8581,1.8581,1.8581,1.8581,0,1.8017,1.8069,1.8105,1.8171,1.8207,1.826,1.8296,1.8329,1.8343,1.8371,1.8436,1.8481,1.8539,1.8558,1.8573,1.8635,1.863,1.8628,1.8614,1.8653,1.8672,1.8681,1.8582,1.8582,1.8581,1.8581,0,0,1.8067,1.8147,1.8159,1.8188,1.825,1.8291,1.8343,1.84,1.8427,1.8473,1.8517,1.8589,1.8587,1.8621,1.8639,1.8671,1.8715,1.8665,1.8667,1.8672,1.8785,1.8786,1.8794,1.872,1.8722,1.8723,1.878,0,1.8124,1.8218,1.8245,1.8324,1.8372,1.8388,1.8433,1.8475,1.8501,1.8545,1.8574,1.8624,1.8619,1.8639,1.8671,1.8703,1.8738,1.8699,1.876,1.8762,1.8746,1.8805,1.8806,1.8858,1.8788,1.879,1.8791,0,1.8204,1.8252,1.8335,1.8389,1.841,1.845,1.8503,1.8545,1.8592,1.8609,1.8646,1.8661,1.8715,1.8698,1.8771,1.8744,1.877,1.8789,1.8792,1.8798,1.8778,1.8812,1.8875,1.8882,1.8803,1.8802,1.8801,0,1.8231,1.8315,1.8376,1.84,1.8465,1.8492,1.852,1.8566,1.8598,1.8644,1.8665,1.8716,1.8744,1.8783,1.8811,1.8797,1.8881,1.8867,1.8896,1.8895,1.8913,1.8911,1.898,1.8931,1.8931,1.8931,1.893,0,1.8292,1.8342,1.8388,1.8425,1.8481,1.8511,1.8565,1.8594,1.8634,1.8676,1.8693,1.8732,1.8767,1.881,1.8832,1.8888,1.8901,1.8915,1.8921,1.8914,1.8912,1.8931,1.8928,1.8933,1.8932,1.8932,1.8931,0,1.8331,1.8364,1.843,1.8486,1.8501,1.8539,1.8586,1.8622,1.8649,1.8701,1.8715,1.8757,1.8809,1.884,1.8906,1.8921,1.8982,1.8986,1.8966,1.8968,1.8995,1.8991,1.9078,1.909,1.9033,1.9034,1.9034,0,1.8367,1.8406,1.8465,1.8494,1.8522,1.857,1.8602,1.8632,1.8665,1.872,1.8749,1.8801,1.8845,1.8926,1.8962,1.9011,1.9016,1.9043,1.9024,1.9015,1.9015,1.9012,1.9016,1.9046,1.9047,1.9047,1.9047,0,1.8428,1.8442,1.8488,1.8539,1.8577,1.8619,1.866,1.8683,1.872,1.8756,1.8809,1.8842,1.8908,1.896,1.9012,1.904,1.9049,1.9053,1.9062,1.9055,1.9041,1.9048,1.8974,1.9051,1.9051,1.905,1.905,1.905,1.8466,1.8501,1.8547,1.8597,1.8631,1.8669,1.8705,1.8736,1.8781,1.8837,1.8852,1.8907,1.8951,1.9022,1.9051,1.9093,1.909,1.9103,1.9106,1.9109,1.9109,1.9035,1.9103,1.9103,1.9103,1.9103,1.9103,0,1.8527,1.8557,1.8603,1.866,1.8699,1.8705,1.875,1.8782,1.883,1.8871,1.8913,1.8973,1.9022,1.9061,1.9112,1.9138,1.9143,1.915,1.9148,1.9154,1.911,1.9097,1.9145,1.9145,1.9145,1.9145,1.9145,1.9145,1.8563,1.8621,1.864,1.8714,1.8744,1.8798,1.8824,1.8858,1.8891,1.8957,1.8998,1.9023,1.9062,1.9115,1.916,1.917,1.9188,1.9193,1.9204,1.9162,1.9157,1.9153,1.9141,1.9197,1.9197,1.9245,1.9245,1.9245]}]]